When you browse on this site, cookies collect data to enhance your experience and personalize the content and advertising you see.
Visit our Privacy Policy to learn more. By continuing to use the site, you agree to this use of cookies and data.
  • In United Kingdom
  • List of Countries
  • For 7 days
  • Water Temperature
  • Satellite Maps
  • Weather Map
  • Weather Widgets
  • user-avatar
    Login

    Hourly Weather Kananga

    Today, 21 November, Wednesday

    Time Temperature Precipitation Wind Pressure Humidity
    00:00 +24°C° 0 mm 1 mps 704 mmHg 35%
    01:00 +24°C° 0 mm 1 mps 704 mmHg 36%
    02:00 +23°C° 0 mm 1 mps 704 mmHg 36%
    03:00 +23°C° 0 mm 1 mps 703 mmHg 36%
    04:00 +22°C° 0 mm 1 mps 703 mmHg 36%
    05:00 +23°C° 0 mm 1 mps 704 mmHg 34%
    06:00 +25°C° 0 mm 2 mps 704 mmHg 32%
    07:00 +26°C° 0 mm 2 mps 705 mmHg 30%
    08:00 +30°C° 0 mm 2 mps 705 mmHg 25%
    09:00 +34°C° 0 mm 2 mps 706 mmHg 21%
    10:00 +38°C° 0 mm 2 mps 706 mmHg 16%
    11:00 +39°C° 0 mm 2 mps 705 mmHg 15%
    12:00 +40°C° 0 mm 2 mps 705 mmHg 15%
    13:00 +41°C° 0 mm 1 mps 704 mmHg 15%
    14:00 +40°C° 0 mm 1 mps 703 mmHg 17%
    15:00 +40°C° 0 mm 1 mps 703 mmHg 18%
    16:00 +39°C° 0 mm 1 mps 702 mmHg 20%
    17:00 +35°C° 0 mm 1 mps 702 mmHg 23%
    18:00 +32°C° 0 mm 1 mps 703 mmHg 27%
    19:00 +29°C° 0 mm 1 mps 703 mmHg 30%
    20:00 +28°C° 0 mm 1 mps 703 mmHg 31%
    21:00 +27°C° 0 mm 1 mps 703 mmHg 32%
    22:00 +27°C° 0 mm 1 mps 704 mmHg 33%
    23:00 +26°C° 0 mm 1 mps 704 mmHg 35%

    Tomorrow, 22 November, Thursday

    Time Temperature Precipitation Wind Pressure Humidity
    00:00 +25°C° 0 mm 1 mps 703 mmHg 37%
    01:00 +25°C° 0 mm 1 mps 703 mmHg 39%
    02:00 +24°C° 0 mm 1 mps 703 mmHg 41%
    03:00 +24°C° 0 mm 1 mps 703 mmHg 42%
    04:00 +23°C° 0 mm 1 mps 703 mmHg 44%
    05:00 +25°C° 0 mm 1 mps 704 mmHg 43%
    06:00 +26°C° 0 mm 1 mps 704 mmHg 42%
    07:00 +27°C° 0 mm 1 mps 705 mmHg 41%
    08:00 +30°C° 0 mm 1 mps 705 mmHg 35%
    09:00 +34°C° 0 mm 1 mps 706 mmHg 29%
    10:00 +37°C° 0 mm 1 mps 706 mmHg 24%
    11:00 +39°C° 0 mm 1 mps 705 mmHg 22%
    12:00 +41°C° 0 mm 1 mps 705 mmHg 20%
    13:00 +42°C° 0 mm 1 mps 704 mmHg 18%
    14:00 +40°C° 0 mm 1 mps 703 mmHg 19%
    15:00 +39°C° 0 mm 1 mps 703 mmHg 20%
    16:00 +37°C° 0 mm 1 mps 702 mmHg 21%
    17:00 +34°C° 0 mm 1 mps 702 mmHg 25%
    18:00 +31°C° 0 mm 1 mps 703 mmHg 28%
    19:00 +29°C° 0 mm 1 mps 703 mmHg 32%
    20:00 +28°C° 0 mm 1 mps 703 mmHg 33%
    21:00 +27°C° 0 mm 1 mps 703 mmHg 35%
    22:00 +27°C° 0 mm 1 mps 704 mmHg 36%
    23:00 +26°C° 0 mm 1 mps 704 mmHg 40%

    Day after tomorrow, 23 November, Friday

    Time Temperature Precipitation Wind Pressure Humidity
    00:00 +25°C° 0 mm 1 mps 703 mmHg 44%
    01:00 +25°C° 0 mm 1 mps 703 mmHg 49%
    02:00 +24°C° 0 mm 1 mps 703 mmHg 55%
    03:00 +24°C° 0 mm 1 mps 703 mmHg 61%
    04:00 +23°C° 0 mm 1 mps 704 mmHg 68%
    05:00 +24°C° 0 mm 1 mps 704 mmHg 68%
    06:00 +25°C° 0 mm 1 mps 705 mmHg 68%
    07:00 +26°C° 0 mm 1 mps 706 mmHg 67%
    08:00 +29°C° 0 mm 1 mps 706 mmHg 59%
    09:00 +32°C° 0 mm 1 mps 706 mmHg 51%
    10:00 +34°C° 0 mm 1 mps 707 mmHg 43%
    11:00 +36°C° 0 mm 1 mps 706 mmHg 38%
    12:00 +39°C° 0 mm 1 mps 705 mmHg 33%
    13:00 +38°C° 0 mm 0 mps 704 mmHg 28%
    14:00 +36°C° 0 mm 0 mps 703 mmHg 32%
    15:00 +33°C° 0 mm 0 mps 703 mmHg 36%
    16:00 +33°C° 0 mm 1 mps 702 mmHg 40%
    17:00 +30°C° 0 mm 0 mps 703 mmHg 43%
    18:00 +28°C° 0 mm 0 mps 703 mmHg 46%
    19:00 +27°C° 0 mm 0 mps 703 mmHg 49%
    20:00 +26°C° 0 mm 0 mps 704 mmHg 52%
    21:00 +27°C° 0 mm 1 mps 704 mmHg 55%
    22:00 +27°C° 0 mm 1 mps 704 mmHg 57%
    23:00 +26°C° 0 mm 1 mps 703 mmHg 61%

    24 November, Saturday

    Time Temperature Precipitation Wind Pressure Humidity
    00:00 +25°C° 0 mm 1 mps 703 mmHg 65%
    01:00 +25°C° 0 mm 1 mps 703 mmHg 69%
    02:00 +24°C° 0 mm 1 mps 703 mmHg 72%
    03:00 +24°C° 0 mm 1 mps 703 mmHg 76%
    04:00 +23°C° 0 mm 1 mps 703 mmHg 79%
    05:00 +23°C° 0 mm 0 mps 704 mmHg 75%
    06:00 +24°C° 0 mm 0 mps 705 mmHg 70%
    07:00 +25°C° 0 mm 0 mps 706 mmHg 66%
    08:00 +29°C° 0 mm 0 mps 706 mmHg 55%
    09:00 +32°C° 0 mm 0 mps 706 mmHg 45%
    10:00 +39°C° 0 mm 1 mps 706 mmHg 34%
    11:00 +39°C° 0 mm 1 mps 705 mmHg 33%
    12:00 +37°C° 0 mm 1 mps 704 mmHg 31%
    13:00 +37°C° 0 mm 1 mps 703 mmHg 30%
    14:00 +37°C° 0 mm 1 mps 703 mmHg 29%
    15:00 +37°C° 0 mm 1 mps 702 mmHg 27%
    16:00 +37°C° 0 mm 1 mps 702 mmHg 26%
    17:00 +34°C° 0 mm 1 mps 703 mmHg 31%
    18:00 +31°C° 0 mm 1 mps 703 mmHg 35%
    19:00 +29°C° 0 mm 1 mps 703 mmHg 40%
    20:00 +28°C° 0 mm 1 mps 703 mmHg 44%
    21:00 +27°C° 0 mm 1 mps 704 mmHg 47%
    22:00 +26°C° 0 mm 1 mps 704 mmHg 51%
    23:00 +25°C° 0 mm 1 mps 703 mmHg 57%

    25 November, Sunday

    Time Temperature Precipitation Wind Pressure Humidity
    00:00 +24°C° 0 mm 1 mps 703 mmHg 63%
    01:00 +22°C° 0 mm 0 mps 703 mmHg 69%
    02:00 +21°C° 0 mm 0 mps 703 mmHg 71%
    03:00 +21°C° 0 mm 0 mps 703 mmHg 73%
    04:00 +21°C° 0 mm 0 mps 703 mmHg 75%
    05:00 +22°C° 0 mm 0 mps 704 mmHg 70%
    06:00 +24°C° 0 mm 0 mps 705 mmHg 65%
    07:00 +28°C° 0 mm 1 mps 705 mmHg 60%
    08:00 +30°C° 0 mm 1 mps 705 mmHg 48%
    09:00 +34°C° 0 mm 2 mps 705 mmHg 36%
    10:00 +37°C° 0 mm 3 mps 706 mmHg 24%
    11:00 +38°C° 0 mm 3 mps 705 mmHg 21%
    12:00 +39°C° 0 mm 3 mps 704 mmHg 18%
    13:00 +40°C° 0 mm 3 mps 703 mmHg 15%
    14:00 +40°C° 0 mm 2 mps 702 mmHg 16%
    15:00 +39°C° 0 mm 2 mps 702 mmHg 17%
    16:00 +38°C° 0 mm 2 mps 702 mmHg 18%
    17:00 +36°C° 0 mm 2 mps 702 mmHg 21%
    18:00 +32°C° 0 mm 1 mps 702 mmHg 24%
    19:00 +29°C° 0 mm 1 mps 702 mmHg 27%
    20:00 +28°C° 0 mm 1 mps 703 mmHg 28%
    21:00 +28°C° 0 mm 1 mps 703 mmHg 29%
    22:00 +27°C° 0 mm 1 mps 703 mmHg 30%
    23:00 +26°C° 0 mm 1 mps 702 mmHg 32%

    26 November, Monday

    Time Temperature Precipitation Wind Pressure Humidity
    00:00 +26°C° 0 mm 1 mps 702 mmHg 34%
    01:00 +25°C° 0 mm 1 mps 702 mmHg 36%
    02:00 +24°C° 0 mm 1 mps 702 mmHg 39%
    03:00 +24°C° 0 mm 1 mps 702 mmHg 41%
    04:00 +23°C° 0 mm 1 mps 702 mmHg 44%
    05:00 +24°C° 0 mm 1 mps 703 mmHg 43%
    06:00 +26°C° 0 mm 1 mps 704 mmHg 42%
    07:00 +27°C° 0 mm 1 mps 704 mmHg 41%
    08:00 +30°C° 0 mm 1 mps 705 mmHg 34%
    09:00 +32°C° 0 mm 2 mps 705 mmHg 26%
    10:00 +36°C° 0 mm 2 mps 705 mmHg 19%
    11:00 +37°C° 0 mm 2 mps 704 mmHg 18%
    12:00 +38°C° 0 mm 2 mps 703 mmHg 16%
    13:00 +39°C° 0 mm 2 mps 702 mmHg 15%
    14:00 +39°C° 0 mm 2 mps 702 mmHg 16%
    15:00 +38°C° 0 mm 2 mps 702 mmHg 18%
    16:00 +38°C° 0 mm 2 mps 701 mmHg 19%
    17:00 +34°C° 0 mm 1 mps 702 mmHg 23%
    18:00 +31°C° 0 mm 1 mps 702 mmHg 26%
    19:00 +28°C° 0 mm 1 mps 702 mmHg 29%
    20:00 +28°C° 0 mm 1 mps 702 mmHg 30%
    21:00 +27°C° 0 mm 1 mps 702 mmHg 31%
    22:00 +27°C° 0 mm 1 mps 702 mmHg 32%
    23:00 +26°C° 0 mm 1 mps 702 mmHg 35%
    Show more